Milwaukee, WI

2:55 PM CDT on September 25, 2016 (GMT -0500)
Gen Mitchell International

Weather History for KMKE - January, 2014

Change the Weather History Date:

Thursday, January 23, 2014

  Actual Average Record
Temperature  
Mean Temperature 4 °F 22 °F  
Max Temperature 11 °F 29 °F 52 °F (1909)
Min Temperature -4 °F 15 °F -23 °F (1883)
Degree Days  
Heating Degree Days 61 43  
Month to date heating degree days 1141 984  
Since 1 July heating degree days 3874 3544  
Cooling Degree Days 0 0  
Month to date cooling degree days 0 0  
Year to date cooling degree days 0 0  
Moisture  
Dew Point -7 °F    
Average Humidity 68    
Maximum Humidity 79    
Minimum Humidity 57    
Precipitation  
Precipitation T in 0.05 in 0.92 in (1898)
Month to date precipitation 0.89 1.33  
Year to date precipitation 0.89 1.33  
Snow  
Snow T in 0.40 in 10.90 in (1898)
Month to date snowfall 13.5 11.1  
Since 1 July snowfall 34.8 24.4  
Snow Depth 7.00 in    
Sea Level Pressure  
Sea Level Pressure 30.46 in    
Wind  
Wind Speed 14 mph (WNW)    
Max Wind Speed 23 mph    
Max Gust Speed 31 mph    
Visibility 9 miles    
Events Snow    
T = Trace of Precipitation, MM = Missing Value Source: NWS Daily Summary

Daily Weather History Graph

Daily Weather History Graph

Search for Another Location

Airport or City:

Trip Planner

Search our weather history database for the weather conditions in past years. The results will help you decide how hot, cold, wet, or windy it might be!

Date:

Astronomy

Jan. 23, 2014 Rise Set
Actual Time 7:14 AM CST 4:52 PM CST
Civil Twilight 6:44 AM CST 5:23 PM CST
Nautical Twilight 6:09 AM CST 5:57 PM CST
Astronomical Twilight 5:35 AM CST 6:31 PM CST
Moon No Moon Rise 10:38 AM CST (1/23)
Length of Visible Light 10h 39m
Length of Day
9h 37m
Waning Gibbous, 55% of the Moon is Illuminated
Jan 23
Waning Gibbous
Jan 23
Last Quarter
Jan 30
New
Feb 6
First Quarter
Feb 14
Full

Hourly Weather History & Observations

Time (CST) Temp. Windchill Dew Point Humidity Pressure Visibility Wind Dir Wind Speed Gust Speed Precip Events Conditions
12:52 AM -0.9 °F -21.2 °F -11.0 °F 62% 30.20 in 10.0 mi WNW 16.1 mph 23.0 mph N/A   Clear
1:52 AM -0.9 °F -22.4 °F -11.0 °F 62% 30.22 in 10.0 mi WNW 18.4 mph 26.5 mph N/A   Clear
2:52 AM -0.9 °F -20.6 °F -11.0 °F 62% 30.24 in 10.0 mi WNW 15.0 mph 27.6 mph N/A   Clear
3:52 AM -0.0 °F -21.3 °F -9.0 °F 66% 30.26 in 9.0 mi WNW 18.4 mph 26.5 mph N/A   Overcast
4:52 AM -0.0 °F -21.3 °F -9.0 °F 66% 30.29 in 10.0 mi WNW 18.4 mph 27.6 mph 0.00 in   Partly Cloudy
5:52 AM 1.0 °F -19.9 °F -8.0 °F 66% 30.32 in 10.0 mi WNW 18.4 mph 25.3 mph N/A   Mostly Cloudy
6:52 AM 1.9 °F -16.9 °F -7.1 °F 66% 30.35 in 10.0 mi NW 15.0 mph 25.3 mph N/A   Scattered Clouds
7:52 AM 1.9 °F -19.2 °F -6.0 °F 69% 30.40 in 2.5 mi NW 19.6 mph 27.6 mph 0.00 in Snow Light Snow
8:52 AM 3.9 °F -15.6 °F -2.9 °F 73% 30.45 in 3.0 mi NW 17.3 mph 25.3 mph 0.00 in Snow Light Snow
9:52 AM 6.1 °F -13.8 °F -4.0 °F 63% 30.48 in 10.0 mi NW 19.6 mph 27.6 mph 0.00 in   Scattered Clouds
10:52 AM 8.1 °F -10.7 °F -2.9 °F 61% 30.51 in 10.0 mi NW 18.4 mph - N/A   Scattered Clouds
11:52 AM 9.0 °F -9.5 °F -2.9 °F 59% 30.51 in 10.0 mi NW 18.4 mph - N/A   Scattered Clouds
12:52 PM 10.0 °F -7.1 °F -2.9 °F 56% 30.52 in 10.0 mi WNW 16.1 mph - N/A   Scattered Clouds
1:52 PM 9.0 °F -8.5 °F -4.0 °F 56% 30.53 in 10.0 mi WNW 16.1 mph - N/A   Scattered Clouds
2:52 PM 9.0 °F -7.3 °F -4.0 °F 56% 30.55 in 10.0 mi West 13.8 mph - N/A   Scattered Clouds
3:52 PM 8.1 °F -5.3 °F -4.0 °F 58% 30.57 in 10.0 mi WNW 9.2 mph - N/A   Partly Cloudy
4:52 PM 6.1 °F -9.5 °F -5.1 °F 60% 30.58 in 10.0 mi West 11.5 mph - N/A   Partly Cloudy
5:52 PM 5.0 °F -9.1 °F -6.0 °F 61% 30.59 in 10.0 mi West 9.2 mph - N/A   Partly Cloudy
6:52 PM 3.9 °F -11.3 °F -7.1 °F 60% 30.59 in 10.0 mi West 10.4 mph - N/A   Partly Cloudy
7:52 PM 3.0 °F -10.5 °F -8.0 °F 60% 30.58 in 10.0 mi West 8.1 mph - N/A   Clear
8:52 PM 1.9 °F -13.8 °F -9.0 °F 60% 30.57 in 10.0 mi West 10.4 mph - N/A   Clear
9:52 PM 1.0 °F -12.9 °F -9.9 °F 60% 30.55 in 10.0 mi West 8.1 mph - N/A   Clear
10:52 PM -0.9 °F -16.4 °F -11.0 °F 62% 30.53 in 10.0 mi WSW 9.2 mph - N/A   Clear
11:52 PM -4.0 °F -20.2 °F -11.9 °F 69% 30.51 in 10.0 mi WSW 9.2 mph - N/A   Clear